Lid_Strength_Index
3 3 4 4 4 3 3 4 4 4 4 4 4 4 4 4 4 4 4 4 4 3 3 3 3 3 5 10 10 6 2 3 2 3 5 7 8 9 12 12 12 12 12 11 9 10 11
3 4 4 4 3 4 4 4 4 4 4 4 5 5 5 5 5 5 5 5 4 4 4 3 3 3 8 14 7 6 5 3 3 4 4 6 8 9 12 13 12 12 11 11 11 11 11
3 3 4 4 4 4 4 4 5 5 5 5 5 5 5 5 5 5 5 5 4 4 4 3 3 5 9 11 6 5 5 5 3 3 5 5 7 9 11 13 11 12 14 13 13 12 12
3 4 4 4 4 4 5 5 5 5 5 5 5 6 6 6 5 5 5 5 5 4 3 3 3 6 11 6 6 6 6 7 4 3 6 6 7 9 12 11 12 15 15 17 13 13 13
4 4 4 5 5 5 5 5 5 6 5 6 6 6 6 6 6 5 5 5 5 4 3 3 7 9 13 5 9 8 7 8 5 4 4 4 8 11 12 14 15 16 17 18 16 13 13
4 5 5 5 5 5 5 6 6 6 6 6 6 6 6 6 6 5 5 6 7 7 6 4 7 12 11 12 10 9 9 8 6 6 7 8 11 14 15 15 19 18 18 18 18 14 14
5 5 5 5 6 6 6 6 6 6 6 6 6 6 6 6 5 6 8 12 14 14 14 16 15 14 13 10 8 10 9 9 9 9 12 12 13 15 14 12 12 13 15 16 16 14 15
5 6 6 6 6 6 6 6 6 6 6 6 6 6 6 5 6 7 10 13 12 12 15 13 12 12 11 10 13 13 10 12 12 14 13 12 15 12 11 12 13 14 15 16 14 13 14
6 6 6 6 6 6 6 6 6 6 6 6 6 6 5 5 6 10 12 12 9 9 16 15 12 12 12 11 13 14 13 13 14 14 12 13 13 11 12 12 14 15 15 15 15 14 14
6 6 7 6 6 6 6 6 6 6 6 6 6 6 5 6 11 11 13 10 10 9 20 17 15 14 13 13 14 11 12 12 12 13 12 14 11 12 12 13 12 16 12 13 14 15 18
7 7 7 7 6 6 6 6 6 6 6 6 6 6 6 7 12 13 11 10 10 11 26 16 15 11 13 15 15 14 10 13 14 15 12 14 13 14 14 13 13 14 11 12 14 15 16
7 7 6 7 6 6 6 6 6 6 6 6 6 6 6 10 12 11 11 11 12 20 27 18 15 16 17 15 14 12 13 10 10 13 11 12 10 10 12 12 12 11 12 12 13 15 20
7 7 7 6 6 6 6 6 6 6 6 6 6 6 8 10 14 11 12 14 22 24 17 19 19 17 17 17 15 14 14 15 14 18 17 14 13 10 9 13 11 12 15 19 21 21 20
7 7 6 6 6 6 6 6 6 6 6 6 6 8 10 11 11 12 14 18 24 20 20 17 17 16 16 15 15 14 14 16 12 14 16 18 19 13 11 12 15 14 15 19 23 22 19
7 6 7 7 7 6 6 6 6 6 6 6 8 14 14 12 12 14 18 23 22 20 18 18 16 18 17 14 14 15 15 15 12 12 16 16 17 11 10 10 12 14 15 14 18 16 19
7 7 7 7 7 7 7 6 6 7 6 7 14 16 15 12 13 16 20 20 19 16 15 15 18 16 18 16 16 15 15 12 11 9 8 12 18 12 11 10 9 11 11 16 16 22 22
7 7 7 7 7 7 7 7 7 7 7 8 17 19 15 12 14 18 23 20 17 13 12 14 15 15 15 15 14 16 14 11 10 9 9 11 14 14 12 13 14 13 14 14 14 17 21
7 7 7 7 7 7 7 7 7 7 7 12 18 21 14 14 19 21 21 18 13 12 11 11 11 12 13 12 15 14 14 12 8 9 12 12 16 16 15 11 9 11 16 15 18 19 17
7 7 8 7 7 8 8 8 8 7 7 14 19 19 14 15 22 21 17 15 13 12 11 11 11 10 10 11 14 13 12 8 8 9 12 11 14 18 16 15 12 16 18 18 17 16 20
8 8 8 8 8 8 8 8 8 8 7 15 19 21 17 17 17 19 17 16 14 10 10 9 9 9 10 12 11 15 13 9 8 9 6 8 13 19 19 17 14 19 20 19 20 20 24
8 8 8 8 8 8 8 8 8 8 8 14 19 20 18 20 17 16 15 14 14 12 9 8 10 9 11 14 13 14 12 11 10 8 9 10 17 14 13 18 20 21 22 23 24 23 23
8 8 8 8 8 9 9 9 8 8 8 15 19 20 18 19 16 16 15 16 13 11 9 10 11 9 9 12 12 14 12 13 13 11 12 11 16 14 20 20 22 26 23 24 25 25 24
8 8 8 8 8 8 9 9 8 8 9 15 12 12 14 16 16 17 16 13 11 9 8 8 9 10 12 11 11 11 10 11 14 16 17 14 15 15 22 20 19 28 27 25 26 26 26
8 8 8 8 8 9 8 8 8 8 8 10 11 12 14 19 16 15 15 14 12 10 11 9 8 12 10 9 10 10 12 14 16 18 18 20 21 16 22 20 29 26 23 23 27 26 26
8 8 8 8 8 8 8 8 8 8 7 10 10 11 14 19 18 17 16 16 14 13 13 10 9 10 9 11 15 19 15 14 18 17 20 21 26 23 24 29 27 24 26 27 28 28 25
9 9 9 9 9 9 8 8 8 7 6 8 10 7 9 16 21 17 17 17 21 18 17 12 10 10 10 15 16 21 20 19 21 22 18 20 22 24 26 30 31 28 25 23 24 31 24
9 10 9 9 9 9 9 8 8 7 6 9 10 8 13 20 17 17 21 20 17 19 21 17 15 14 13 20 21 22 21 22 29 30 28 27 28 29 30 33 31 26 24 22 31 31 24
10 10 10 10 10 9 9 8 6 6 6 9 10 9 14 20 17 18 17 20 19 21 22 20 19 17 18 20 20 20 23 24 27 26 30 34 35 32 31 31 31 24 24 28 28 25 23
11 11 10 10 9 9 8 7 7 8 7 8 11 9 11 16 19 15 16 16 18 19 18 21 18 22 18 21 21 21 23 24 29 33 27 32 33 34 32 31 29 28 29 27 25 25 25